sat.trackr.live / text

‹ back to catalog

STARLINK-36541

NORAD 67509 · 2026-012S

PAYLOAD ACTIVE UNKNOWN

§ Identity

Operator
Country
US
Launch date
2026-01-18
Launch site
AFETR
Launch vehicle
Mass (kg)
RCS (m²)

Purposes: comms

External: N2YO · Heavens-Above · Gunter

§ Orbital elements

Epoch: 2026-09-19T09:40:03.177120Z

Period
94.27 min
Inclination
43.0014°
Eccentricity
0.0001360
Mean motion
15.27589124 rev/d
Perigee alt
482.1 km
Apogee alt
484.0 km
Semi-major
6,861.2 km
B*
3.4832e-4
RAAN
300.7887°
Arg perigee
270.0649°
Mean anomaly
90.0047°
Rev number
3,738

§ Raw data

STARLINK-365411 67509U 26012S   26262.40281455  .00009338  00000+0  34832-3 0  99902 67509  43.0014 300.7887 0001360 270.0649  90.0047 15.27589124 37387

JSON: /api/v1/satellites/67509 · /tle

For live sub-satellite position, see the globe view (requires WebGL).

§ Visibility from observer

Set your observer location to see the next 7 days of passes ≥ 10°. The values pass through the URL so the page stays shareable.

No JS? Fill the form by hand. The geolocation button needs JavaScript.